Regional Weather Roundup
Issued by NWS

Home | Current Version | Previous Version | Text Only | Print | Product List | Glossary On
Versions: 1 2 3 4 5 6 7 8 9 10 11 12 13 14 15 16 17 18 19 20 21 22 23 24 25 26 27 28 29 30 31 32 33 34 35 36 37 38 39 40 41 42 43 44 45 46 47 48 49 50
000
ASUS43 KTOP 250808
RWRKS

WEATHER ROUNDUP FOR KANSAS
NATIONAL WEATHER SERVICE GOODLAND KS
300 AM CDT WED APR 25 2018

NOTE:  "FAIR" INDICATES FEW OR NO CLOUDS BELOW 12,000 FEET WITH NO
SIGNIFICANT WEATHER AND/OR OBSTRUCTIONS TO VISIBILITY.

KSZ001>006-013>018-027>032-041>047-250900-
NORTHWEST KANSAS

CITY           SKY/WX    TMP DP  RH WIND       PRES   REMARKS
GOODLAND       CLEAR     32  30  92 NW14      30.35F WCI  22
HAYS           CLOUDY    41  37  87 N20       30.29F
HILL CITY      CLOUDY    40  37  89 N20G26    30.33F WCI  30
RUSSELL        CLOUDY    42  41  96 NW16      30.27S
$$

KSZ061>065-074>080-084>089-250900-
SOUTHWEST KANSAS

CITY           SKY/WX    TMP DP  RH WIND       PRES   REMARKS
DODGE CITY     CLOUDY    39  36  89 NW13      30.31F WCI  31
ELKHART        LGT RAIN  39  38  98 N10G17    30.36F WCI  32
GARDEN CITY    MOCLDY    38  36  92 NW13      30.34F WCI  30
GREAT BEND     LGT RAIN  41  39  93 NW15      30.28F
LIBERAL        LGT RAIN  37  36  96 N15       30.35F WCI  28
PRATT          LGT RAIN  41  39  91 NW18G24   30.27S
$$

KSZ066>073-081>083-090>101-250900-
SOUTHEAST KANSAS

CITY           SKY/WX    TMP DP  RH WIND       PRES   REMARKS
CHANUTE        CLOUDY    54  49  83 N10       30.10F
COFFEYVILLE    CLOUDY    55  49  80 N12       30.08F
HUTCHINSON     LGT RAIN  45  43  93 NW15      30.24F
MEDICINE LODGE   N/A     44  42  93 N17G29    30.24F
NEWTON         LGT RAIN  46  44  93 NW20      30.21S
PARSONS        CLOUDY    54  49  83 N12       30.09F
WICHITA INTL   LGT RAIN  47  46  97 NW18      30.22S
WICHITA JABRA  LGT RAIN  47  46  97 NW14      30.21F
WICHITA MCCONL LGT RAIN  47  47  98 NW16      30.21
WINFIELD       RAIN      48  47  96 N16       30.20R
$$

KSZ007>012-019>026-033>040-048>060-102>105-250900-
NORTHEAST KANSAS

CITY           SKY/WX    TMP DP  RH WIND       PRES   REMARKS
CONCORDIA      CLOUDY    47  44  90 N9        30.21F
EMPORIA        CLOUDY    50  46  86 NW15      30.15F
LAWRENCE       CLOUDY    56  48  74 N10       30.11F
MANHATTAN      LGT RAIN  50  48  93 VRB3      30.20R FOG
MARYSVILLE     LGT RAIN  50  48  93 N7        30.19S
OLATHE IND     CLOUDY    57  47  69 N12       30.10F
OLATHE EXE     CLOUDY    57  46  66 N10       30.10F
SALINA         RAIN      47  46  97 NW15      30.24S
TOPEKA BILLARD CLOUDY    53  51  93 NW10      30.13F
TOPEKA FORBES  CLOUDY    54  50  86 NW13      30.13F
$$




USA.gov is the U.S. government's official web portal to all federal, state and local government web resources and services.